Tracking 29932 objects as of 4-Dec-2024
HD Live streaming from Space Station
objects crossing your sky now

STARLINK-11160

Track STARLINK-11160 now!
10-day predictions
STARLINK-11160 is classified as:


NORAD ID: 60125
Int'l Code: 2024-118N
Perigee: 365.8 km
Apogee: 367.8 km
Inclination: 53.2 °
Period: 91.7 minutes
Semi major axis: 6737 km
RCS: Unknown
Launch date: June 24, 2024
Source: United States (US)
Launch site: AIR FORCE WESTERN TEST RANGE (AFWTR)
Your satellite tracking list
Your tracking list is empty




NASA's NSSDC Master Catalog

Two Line Element Set (TLE):
1 60125U 24118N   24338.45916686  .00011076  00000-0  96082-4 0  9999
2 60125  53.1570 334.8237 0001431 102.6607 257.4571 15.69730228 26662
Source of the keplerian elements: AFSPC